Weather History for KMFD - March, 2013

Change the Weather History Date:

Sunday, March 24, 2013

  Actual Average Record
Temperature  
Mean Temperature 31 °F 40 °F  
Max Temperature 35 °F 50 °F 80 °F (1939)
Min Temperature 26 °F 31 °F 4 °F (1974)
Degree Days  
Heating Degree Days 34 25  
Month to date heating degree days 789 702  
Since 1 July heating degree days 5162 5327  
Cooling Degree Days 0 0  
Month to date cooling degree days 0 0  
Year to date cooling degree days 0 0  
Moisture  
Dew Point 21 °F    
Average Humidity 69    
Maximum Humidity 81    
Minimum Humidity 56    
Precipitation  
Precipitation T in 0.12 in 0.55 in (1993)
Month to date precipitation 1.49 2.50  
Year to date precipitation 6.22 7.76  
Snow  
Snow T in 0.20 in - ()
Month to date snowfall 4.9 6.7  
Since 1 July snowfall 34.7 44.6  
Snow Depth 0.00 in    
Sea Level Pressure  
Sea Level Pressure 29.76 in    
Wind  
Wind Speed 12 mph (NE)    
Max Wind Speed 23 mph    
Max Gust Speed 28 mph    
Visibility 10 miles    
Events      
T = Trace of Precipitation, MM = Missing Value Source: NWS Daily Summary

Daily Weather History Graph

Daily Weather History Graph

Search for Another Location

Airport or City:

Trip Planner

Search our weather history database for the weather conditions in past years. The results will help you decide how hot, cold, wet, or windy it might be!

Date:

Astronomy

Mar. 24, 2013 Rise Set
Actual Time 7:26 AM EDT 7:46 PM EDT
Civil Twilight 6:58 AM EDT 8:14 PM EDT
Nautical Twilight 6:26 AM EDT 8:46 PM EDT
Astronomical Twilight 5:53 AM EDT 9:19 PM EDT
Moon 5:12 PM EDT (3/24) 5:37 AM EDT (3/24)
Length of Visible Light 13h 15m
Length of Day
12h 20m
Waxing Gibbous, 91% of the Moon is Illuminated
Mar 24
Waxing Gibbous
Mar 27
Full
Apr 3
Last Quarter
Apr 10
New
Apr 18
First Quarter

Hourly Weather History & Observations

Time (EDT) Temp. Windchill Dew Point Humidity Pressure Visibility Wind Dir Wind Speed Gust Speed Precip Events Conditions
12:52 AM 27.0 °F 17.3 °F 21.0 °F 78% 29.99 in 10.0 mi NE 10.4 mph - N/A   Clear
1:52 AM 26.1 °F 16.2 °F 21.0 °F 81% 29.97 in 10.0 mi NE 10.4 mph - N/A   Clear
2:52 AM 27.0 °F 18.7 °F 21.0 °F 78% 29.97 in 10.0 mi ENE 8.1 mph - N/A   Clear
3:52 AM 27.0 °F 18.7 °F 21.0 °F 78% 29.98 in 10.0 mi ENE 8.1 mph - N/A   Clear
4:52 AM 26.1 °F 17.6 °F 21.0 °F 81% 29.97 in 10.0 mi East 8.1 mph - N/A   Clear
5:52 AM 26.1 °F 17.6 °F 21.9 °F 84% 29.96 in 10.0 mi East 8.1 mph - N/A   Clear
6:52 AM 26.1 °F 17.6 °F 21.9 °F 84% 29.94 in 10.0 mi East 8.1 mph - N/A   Clear
7:52 AM 26.1 °F 16.2 °F 21.9 °F 84% 29.93 in 10.0 mi NE 10.4 mph - N/A   Clear
8:52 AM 27.0 °F 16.1 °F 21.9 °F 81% 29.90 in 10.0 mi ENE 12.7 mph 20.7 mph N/A   Clear
9:52 AM 28.0 °F 16.1 °F 23.0 °F 81% 29.86 in 10.0 mi ENE 16.1 mph - N/A   Clear
10:52 AM 30.0 °F 18.7 °F 23.0 °F 75% 29.82 in 10.0 mi ENE 16.1 mph 20.7 mph N/A   Partly Cloudy
11:52 AM 32.0 °F 23.0 °F 23.0 °F 69% 29.81 in 10.0 mi NE 11.5 mph - N/A   Clear
12:52 PM 32.0 °F 21.6 °F 21.9 °F 66% 29.78 in 10.0 mi NE 15.0 mph 19.6 mph N/A   Clear
1:52 PM 32.0 °F 22.5 °F 21.0 °F 64% 29.75 in 10.0 mi ENE 12.7 mph - N/A   Overcast
2:52 PM 33.1 °F 21.9 °F 21.0 °F 61% 29.69 in 10.0 mi NE 18.4 mph 25.3 mph N/A   Overcast
3:52 PM 34.0 °F 23.8 °F 21.0 °F 59% 29.66 in 10.0 mi NE 16.1 mph 24.2 mph N/A   Overcast
4:52 PM 34.0 °F 23.4 °F 21.0 °F 59% 29.64 in 10.0 mi ENE 17.3 mph 23.0 mph N/A   Overcast
5:52 PM 34.0 °F 23.4 °F 19.9 °F 56% 29.59 in 10.0 mi NNE 17.3 mph 23.0 mph N/A   Overcast
6:52 PM 33.1 °F 24.9 °F 21.0 °F 61% 29.61 in 10.0 mi NE 10.4 mph 20.7 mph N/A   Overcast
7:52 PM 32.0 °F 23.0 °F 21.0 °F 64% 29.59 in 10.0 mi NNE 11.5 mph - N/A   Overcast
8:52 PM 30.9 °F 21.7 °F 21.0 °F 67% 29.56 in 10.0 mi NNE 11.5 mph - N/A   Overcast
9:52 PM 30.9 °F 21.2 °F 21.9 °F 69% 29.53 in 10.0 mi NE 12.7 mph - N/A   Overcast
10:52 PM 30.9 °F 20.7 °F 21.9 °F 69% 29.49 in 10.0 mi NE 13.8 mph - N/A   Overcast
11:04 PM 30.2 °F 20.8 °F 21.2 °F 69% 29.47 in 10.0 mi NE 11.5 mph - N/A   Overcast
11:52 PM 32.0 °F 24.8 °F 21.9 °F 66% 29.49 in 10.0 mi NE 8.1 mph - N/A   Overcast